DELTA 1 DEB, 3416

Orbit data source: Space-Track

DELTA 1 DEB, 3416 is space debris in SSO originally from a launch on Fri, 16 Aug 1968 UTC launched from the Air Force Western Test Range (AFWTR). Debris objects in space refer to the collection of defunct objects orbiting the Earth. Examples of debris include non-operational satellites, rocket bodies, and fragments generated from explosions, collisions, or faulty payload assembly.

Loading next visibility...
Identifier
3416, 1968-069C
Orbit
SSO
Last TLE update
19 hours ago
Origin
Manufacturer
Unknown
Mission
Spacecraft
Bus & Motor
Unknown
Mass
Unknown
Launch date (UTC)
1968-08-16 (57 years ago)
Launch vehicle
Unknown
Launch site
Air Force Western Test Range (AFWTR)
Object type
Payload
Rocket body
Debris
Shape & HBR
Unknown
Radar Cross Section
Small (<0.1 m²)

Expand to show TLE details & history

TLE from 19 hours ago
0 DELTA 1 DEB
1 03416U 68069C   25129.29381885 -.00000014  00000-0  16866-3 0  9992
2 03416 101.6677 254.1343 0118738 231.0628 156.0145 12.67138683623116
Epoch: 2025-05-09T07:03Z
Definitive object data (Epoch: 2025-05-09T07:03:05.948Z)
Latitude
27.04204°
Longitude
-85.01356°
Altitude
1,481.149 km
Speed
7.086 km/s
True Right ascension
16h 32m 27s
True Declination
26° 54' 57"
Sunlit
Object was in full shadow at TLE epoch
Visualization TLE readout
Latitude
-52.77284°
Longitude
-62.52427°
Altitude
1,391.011 km
Speed
7.174 km/s
Apparent Right ascension
19h 56m 34s
Apparent Declination
-50° 19' 39"
Sunlit
Object is in full shadow
Visualization observer readout
Local Sidereal Time
09:45:54
Azimuth
127.686° SE
Elevation
-68.257°
Doppler factor
1
Orbital elements
Apogee altitude
1,483.387 km
Perigee altitude
1,298.886 km
Semi-major axis
7,769.274 km
Eccentricity
0.0118738
Inclination
101.6677°
RAAN
254.1343°
Arg. of periapsis
231.0628°
True anomaly
156.56019°
Mean anomaly
156.0145°
Eccentric anomaly
156.28808°
Mean motion
3.16937 °/min
BSTAR
0.00016866
Orbital period
113.59 mins
Loading maneuver chart data...
Loading SW <> Apogee altitude chart data...
Loading historical data...
Loading historical data...
Loading historical data...
Loading historical data...
Loading historical data...
Loading historical data...
Loading historical data...

DELTA 1 DEB Visibility forecast

Observer location: undefined°, undefined°

Span
Click to sort rows by Start time (UTC) header in descending order
Start Az.
Max El. time (UTC)
Max El. Az.
Max El.
End time (UTC)
End Az.
8 mins2025-05-10 05:51:56.302Z77.425° E2025-05-10 05:55:56.302Z47.149° ENE15.777°2025-05-10 05:59:56.302Z17.289° NNE
15 mins2025-05-10 07:38:56.302Z146.895° SSE2025-05-10 07:45:56.302Z65.199° ENE43.068°2025-05-10 07:53:56.302Z347.819° N
11 mins2025-05-10 09:32:56.302Z220.938° SW2025-05-10 09:37:56.302Z265.122° W23.864°2025-05-10 09:43:56.302Z315.096° NNW
9 mins2025-05-10 19:35:56.302Z56.706° ENE2025-05-10 19:39:56.302Z89.502° E17.503°2025-05-10 19:44:56.302Z130.436° SE
14 mins2025-05-10 21:25:56.302Z15.744° NNE2025-05-10 21:32:56.302Z242.462° WSW44.734°2025-05-10 21:39:56.302Z202.533° SW
9 mins2025-05-10 23:18:56.302Z342.859° N2025-05-10 23:22:56.302Z309.829° NW18.401°2025-05-10 23:27:56.302Z269.543° W
|